Weather History for 41217 - September, 2013

Change the Weather History Date:

Saturday, September 28, 2013

  Actual Average Record
Temperature  
Mean Temperature 90 °F -  
Max Temperature 100 °F 95 °F - ()
Min Temperature 80 °F 72 °F - ()
Cooling Degree Days 25    
Growing Degree Days 40 (Base 50)    
Moisture  
Dew Point 64 °F    
Average Humidity 44    
Maximum Humidity 58    
Minimum Humidity 13    
Precipitation  
Precipitation 0.00 in 0.00 in - ()
Sea Level Pressure  
Sea Level Pressure 29.70 in    
Wind  
Wind Speed 6 mph ()    
Max Wind Speed 13 mph    
Max Gust Speed 17 mph    
Visibility 6.0 miles    
Events      
T = Trace of Precipitation, MM = Missing Value Source: Averaged Metar Reports

Daily Weather History Graph

Daily Weather History Graph

Search for Another Location

Airport or City:

Trip Planner

Search our weather history database for the weather conditions in past years. The results will help you decide how hot, cold, wet, or windy it might be!

Date:

Astronomy

Sep. 28, 2013 Rise Set
Actual Time 6:12 AM GST 6:11 PM GST
Civil Twilight 5:49 AM GST 6:34 PM GST
Nautical Twilight 5:23 AM GST 7:00 PM GST
Astronomical Twilight 4:56 AM GST 7:27 PM GST
Moon 12:11 AM GST (9/28) 1:43 PM GST (9/28)
Length of Visible Light 12h 44m
Length of Day
11h 59m
Last Quarter, 39% of the Moon is Illuminated
Sep 28
Last Quarter
Oct 5
New
Oct 12
First Quarter
Oct 19
Full
Oct 27
Last Quarter

Hourly Weather History & Observations

Time (GST) Temp. Heat Index Dew Point Humidity Pressure Visibility Wind Dir Wind Speed Gust Speed Precip Events Conditions
12:00 AM 86.0 °F 88.2 °F 66.2 °F 51% 29.71 in - East 6.9 mph - N/A   Clear
1:00 AM 85 °F - 65 °F 42% 29.70 in 6 mi ESE 5.8 mph - -  
1:00 AM 86.0 °F 88.2 °F 66.2 °F 51% 29.68 in - ESE 5.8 mph - N/A   Clear
2:00 AM 84.2 °F 86.6 °F 66.2 °F 55% 29.68 in - ESE 6.9 mph - N/A   Clear
3:00 AM 84.2 °F 86.6 °F 66.2 °F 55% 29.68 in - ESE 8.1 mph - N/A   Clear
4:00 AM 84 °F - 65 °F 44% 29.69 in 6 mi SSE 4.6 mph - -  
4:00 AM 84.2 °F 86.6 °F 66.2 °F 55% 29.68 in - SSE 4.6 mph - N/A   Clear
5:00 AM 82.4 °F 83.9 °F 64.4 °F 54% 29.68 in - SE 5.8 mph - N/A   Clear
6:00 AM 82.4 °F 83.9 °F 64.4 °F 54% 29.71 in - SE 5.8 mph - N/A   Clear
7:00 AM 81 °F - 64 °F 48% 29.73 in 6 mi ESE 5.8 mph - -  
7:00 AM 80.6 °F 82.3 °F 64.4 °F 58% 29.71 in - ESE 5.8 mph - N/A   Clear
8:00 AM 84.2 °F 85.6 °F 64.4 °F 51% 29.74 in - ESE 9.2 mph - N/A   Clear
9:00 AM 89.6 °F 92.2 °F 66.2 °F 46% 29.74 in - SE 8.1 mph - N/A   Clear
10:00 AM 92 °F - 68 °F 35% 29.76 in 6 mi South 5.8 mph - -  
10:00 AM 91.4 °F 95.4 °F 68.0 °F 46% 29.74 in - South 5.8 mph - N/A   Clear
11:00 AM 93.2 °F 94.1 °F 62.6 °F 36% 29.74 in 6.2 mi SSE 6.9 mph - N/A   Partly Cloudy
12:00 PM 96.8 °F 96.2 °F 59.0 °F 28% 29.71 in 6.2 mi SSE 6.9 mph - N/A   Partly Cloudy
1:00 PM 98 °F - 52 °F 13% 29.70 in 6 mi South 9.2 mph - -   Scattered Clouds
1:00 PM 96.8 °F - 51.8 °F 22% 29.68 in 6.2 mi South 9.2 mph - N/A   Partly Cloudy
2:00 PM 98.6 °F - 50.0 °F 19% 29.68 in 6.2 mi South 8.1 mph - N/A   Partly Cloudy
3:00 PM 100.4 °F - 51.8 °F 20% 29.65 in 5.6 mi West 11.5 mph - N/A   Partly Cloudy
4:00 PM 95.0 °F 97.0 °F 64.4 °F 36% 29.65 in 6.2 mi NW 12.7 mph - N/A   Partly Cloudy
5:00 PM 93.2 °F 98.8 °F 69.8 °F 46% 29.65 in - NNW 12.7 mph - N/A   Clear
6:00 PM 91.4 °F 95.4 °F 68.0 °F 46% 29.68 in - NW 10.4 mph - N/A   Clear
7:00 PM 90 °F - 67 °F 38% 29.69 in 6 mi North 9.2 mph - -  
7:00 PM 91.4 °F 95.4 °F 68.0 °F 46% 29.68 in - North 9.2 mph - N/A   Clear
8:00 PM 89.6 °F 93.4 °F 68.0 °F 49% 29.71 in - North 5.8 mph - N/A   Clear
9:00 PM 87.8 °F 92.6 °F 69.8 °F 55% 29.71 in - NNE 5.8 mph - N/A   Clear
10:00 PM 88 °F - 70 °F 47% 29.73 in 6 mi NE 6.9 mph - -  
10:00 PM 87.8 °F 92.6 °F 69.8 °F 55% 29.71 in - NE 6.9 mph - N/A   Clear
11:00 PM 87.8 °F 92.6 °F 69.8 °F 55% 29.71 in - NE 5.8 mph 17.3 mph N/A   Clear